Time,TemperatureF,DewpointF,PressureIn,WindDirection,WindDirectionDegrees,WindSpeedMPH,WindSpeedGustMPH,Humidity,HourlyPrecipIn,Conditions,Clouds,dailyrainin,SoftwareType,DateUTC
2013-05-22 00:02:00,72.0,64.0,29.90,SSW,196,0.0,1.0,75,0.00,,,0.00,,2013-05-22 05:02:00,
2013-05-22 00:11:00,71.0,63.0,29.90,SSW,196,0.0,0.0,77,0.00,,,0.00,,2013-05-22 05:11:00,
2013-05-22 00:21:00,71.0,63.0,29.90,SSW,196,0.0,0.0,77,0.00,,,0.00,,2013-05-22 05:21:00,
2013-05-22 00:31:00,70.0,63.0,29.90,WNW,289,0.0,5.0,79,0.00,,,0.00,,2013-05-22 05:31:00,
2013-05-22 00:42:00,71.0,65.0,29.91,NNE,30,0.0,0.0,81,0.00,,,0.00,,2013-05-22 05:42:00,
2013-05-22 00:52:00,71.0,65.0,29.91,NNE,30,0.0,0.0,81,0.00,,,0.00,,2013-05-22 05:52:00,
2013-05-22 01:01:00,70.0,64.0,29.91,NNE,30,0.0,0.0,81,0.00,,,0.00,,2013-05-22 06:01:00,
2013-05-22 01:11:00,70.0,65.0,29.91,North,3,0.0,0.0,83,0.00,,,0.00,,2013-05-22 06:11:00,
2013-05-22 01:21:00,70.0,65.0,29.91,North,3,0.0,0.0,83,0.00,,,0.00,,2013-05-22 06:21:00,
2013-05-22 01:31:00,70.0,65.0,29.91,NNE,24,1.0,3.0,85,0.00,,,0.00,,2013-05-22 06:31:00,
2013-05-22 01:42:00,69.0,64.0,29.91,NNE,33,0.0,1.0,84,0.00,,,0.00,,2013-05-22 06:42:00,
2013-05-22 01:52:00,69.0,64.0,29.91,NNE,33,0.0,1.0,84,0.00,,,0.00,,2013-05-22 06:52:00,
2013-05-22 02:01:00,69.0,64.0,29.91,NNE,33,0.0,0.0,83,0.00,,,0.00,,2013-05-22 07:01:00,
2013-05-22 02:11:00,69.0,64.0,29.91,NNE,33,0.0,0.0,83,0.00,,,0.00,,2013-05-22 07:11:00,
2013-05-22 02:21:00,69.0,64.0,29.91,NNE,32,0.0,0.0,84,0.00,,,0.00,,2013-05-22 07:21:00,
2013-05-22 02:31:00,69.0,64.0,29.91,NE,36,0.0,1.0,84,0.00,,,0.00,,2013-05-22 07:31:00,
2013-05-22 02:41:00,69.0,64.0,29.91,NE,36,0.0,1.0,84,0.00,,,0.00,,2013-05-22 07:41:00,
2013-05-22 02:52:00,68.0,64.0,29.91,NE,37,0.0,0.0,86,0.00,,,0.00,,2013-05-22 07:52:00,
2013-05-22 03:02:00,68.0,64.0,29.92,NE,36,0.0,0.0,87,0.00,,,0.00,,2013-05-22 08:02:00,
2013-05-22 03:11:00,68.0,64.0,29.92,NE,36,0.0,0.0,87,0.00,,,0.00,,2013-05-22 08:11:00,
2013-05-22 03:22:00,68.0,64.0,29.93,SE,138,1.0,3.0,88,0.00,,,0.00,,2013-05-22 08:22:00,
2013-05-22 03:31:00,68.0,64.0,29.94,SW,214,4.0,17.0,88,0.00,,,0.00,,2013-05-22 08:31:00,
2013-05-22 03:42:00,68.0,64.0,29.94,SW,214,4.0,17.0,88,0.00,,,0.00,,2013-05-22 08:42:00,
2013-05-22 03:52:00,68.0,62.0,29.94,WNW,286,1.0,6.0,81,0.00,,,0.00,,2013-05-22 08:52:00,
2013-05-22 04:01:00,68.0,62.0,29.94,WSW,254,1.0,5.0,82,0.00,,,0.00,,2013-05-22 09:01:00,
2013-05-22 04:11:00,68.0,62.0,29.94,WSW,254,1.0,5.0,82,0.00,,,0.00,,2013-05-22 09:11:00,
2013-05-22 04:21:00,67.0,61.0,29.94,SW,234,1.0,5.0,82,0.00,,,0.00,,2013-05-22 09:21:00,
2013-05-22 04:32:00,67.0,62.0,29.94,SW,220,1.0,5.0,83,0.00,,,0.00,,2013-05-22 09:32:00,
2013-05-22 04:42:00,67.0,62.0,29.94,SW,220,1.0,5.0,83,0.00,,,0.00,,2013-05-22 09:42:00,
2013-05-22 04:53:00,66.0,61.0,29.93,NW,307,1.0,3.0,83,0.00,,,0.00,,2013-05-22 09:53:00,
2013-05-22 05:03:00,66.0,61.0,29.92,West,269,0.0,3.0,84,0.00,,,0.00,,2013-05-22 10:03:00,
2013-05-22 05:12:00,66.0,62.0,29.91,WSW,252,0.0,0.0,86,0.00,,,0.00,,2013-05-22 10:12:00,
2013-05-22 05:22:00,66.0,62.0,29.91,WSW,252,0.0,0.0,86,0.00,,,0.00,,2013-05-22 10:22:00,
2013-05-22 05:33:00,65.0,61.0,29.91,WSW,252,0.0,0.0,86,0.00,,,0.00,,2013-05-22 10:33:00,
2013-05-22 05:42:00,65.0,62.0,29.89,SW,229,0.0,2.0,90,0.00,,,0.00,,2013-05-22 10:42:00,
2013-05-22 05:52:00,65.0,62.0,29.89,SW,229,0.0,2.0,90,0.00,,,0.00,,2013-05-22 10:52:00,
2013-05-22 06:02:00,65.0,62.0,29.89,NNW,338,1.0,3.0,89,0.00,,,0.00,,2013-05-22 11:02:00,
2013-05-22 06:11:00,65.0,62.0,29.89,NNW,338,1.0,3.0,89,0.00,,,0.00,,2013-05-22 11:11:00,
2013-05-22 06:21:00,65.0,62.0,29.87,SE,135,1.0,5.0,90,0.00,,,0.00,,2013-05-22 11:21:00,
2013-05-22 06:32:00,65.0,62.0,29.88,South,191,0.0,3.0,90,0.00,,,0.00,,2013-05-22 11:32:00,
2013-05-22 06:41:00,65.0,62.0,29.89,SSE,163,0.0,5.0,90,0.00,,,0.00,,2013-05-22 11:41:00,
2013-05-22 06:52:00,65.0,62.0,29.89,SSE,163,0.0,5.0,90,0.00,,,0.00,,2013-05-22 11:52:00,
2013-05-22 07:02:00,65.0,62.0,29.89,South,187,1.0,3.0,90,0.00,,,0.00,,2013-05-22 12:02:00,
2013-05-22 07:12:00,65.0,62.0,29.89,South,187,1.0,3.0,90,0.00,,,0.00,,2013-05-22 12:12:00,
2013-05-22 07:22:00,65.0,62.0,29.88,South,171,1.0,6.0,90,0.00,,,0.00,,2013-05-22 12:22:00,
2013-05-22 07:32:00,65.0,62.0,29.87,SSE,165,1.0,3.0,90,0.00,,,0.00,,2013-05-22 12:32:00,
2013-05-22 07:42:00,66.0,63.0,29.88,SSW,192,0.0,3.0,90,0.00,,,0.00,,2013-05-22 12:42:00,
2013-05-22 07:52:00,66.0,63.0,29.88,SSW,192,0.0,3.0,90,0.00,,,0.00,,2013-05-22 12:52:00,
2013-05-22 08:01:00,66.0,63.0,29.87,South,191,0.0,2.0,89,0.00,,,0.00,,2013-05-22 13:01:00,
2013-05-22 08:11:00,66.0,63.0,29.87,South,191,0.0,2.0,89,0.00,,,0.00,,2013-05-22 13:11:00,
2013-05-22 08:22:00,67.0,63.0,29.88,South,182,1.0,3.0,87,0.00,,,0.00,,2013-05-22 13:22:00,
2013-05-22 08:32:00,68.0,64.0,29.90,SSW,203,2.0,5.0,87,0.00,,,0.00,,2013-05-22 13:32:00,
2013-05-22 08:41:00,69.0,64.0,29.90,South,183,1.0,3.0,84,0.00,,,0.00,,2013-05-22 13:41:00,
2013-05-22 08:52:00,69.0,64.0,29.90,South,183,1.0,3.0,84,0.00,,,0.00,,2013-05-22 13:52:00,
2013-05-22 09:02:00,69.0,64.0,29.90,SSW,209,2.0,7.0,84,0.00,,,0.00,,2013-05-22 14:02:00,
2013-05-22 09:11:00,70.0,65.0,29.91,SW,234,0.0,3.0,84,0.00,,,0.00,,2013-05-22 14:11:00,
2013-05-22 09:21:00,70.0,65.0,29.91,SW,234,0.0,3.0,84,0.00,,,0.00,,2013-05-22 14:21:00,
2013-05-22 09:32:00,70.0,65.0,29.92,WSW,244,0.0,1.0,83,0.00,,,0.00,,2013-05-22 14:32:00,
2013-05-22 09:42:00,70.0,65.0,29.92,WSW,244,0.0,1.0,83,0.00,,,0.00,,2013-05-22 14:42:00,
2013-05-22 09:52:00,71.0,65.0,29.93,SSW,195,5.0,8.0,81,0.00,,,0.00,,2013-05-22 14:52:00,
2013-05-22 10:01:00,71.0,65.0,29.93,SSW,208,5.0,9.0,81,0.00,,,0.00,,2013-05-22 15:01:00,
2013-05-22 10:11:00,71.0,65.0,29.93,SSW,208,5.0,9.0,81,0.00,,,0.00,,2013-05-22 15:11:00,
2013-05-22 10:21:00,71.0,65.0,29.94,SSW,213,1.0,5.0,82,0.00,,,0.00,,2013-05-22 15:21:00,
2013-05-22 10:32:00,71.0,65.0,29.94,South,186,2.0,6.0,82,0.00,,,0.00,,2013-05-22 15:32:00,
2013-05-22 10:42:00,71.0,65.0,29.94,South,186,2.0,6.0,82,0.00,,,0.00,,2013-05-22 15:42:00,
2013-05-22 10:53:00,71.0,65.0,29.94,SSW,201,3.0,7.0,81,0.00,,,0.00,,2013-05-22 15:53:00,
2013-05-22 11:03:00,72.0,65.0,29.94,SSW,206,5.0,9.0,79,0.00,,,0.00,,2013-05-22 16:03:00,
2013-05-22 11:12:00,72.0,65.0,29.94,SSW,206,5.0,9.0,79,0.00,,,0.00,,2013-05-22 16:12:00,
2013-05-22 11:23:00,73.0,65.0,29.94,South,187,5.0,12.0,76,0.00,,,0.00,,2013-05-22 16:23:00,
2013-05-22 11:32:00,74.0,66.0,29.94,SSW,210,6.0,9.0,75,0.00,,,0.00,,2013-05-22 16:32:00,
2013-05-22 11:42:00,74.0,66.0,29.94,SSW,210,6.0,9.0,75,0.00,,,0.00,,2013-05-22 16:42:00,
2013-05-22 11:52:00,75.0,66.0,29.93,SSW,211,6.0,12.0,73,0.00,,,0.00,,2013-05-22 16:52:00,
2013-05-22 12:02:00,75.0,67.0,29.93,SSW,196,3.0,9.0,76,0.00,,,0.00,,2013-05-22 17:02:00,
2013-05-22 12:11:00,76.0,67.0,29.92,SSW,198,4.0,7.0,74,0.00,,,0.00,,2013-05-22 17:11:00,
2013-05-22 12:22:00,76.0,67.0,29.92,SSW,198,4.0,7.0,74,0.00,,,0.00,,2013-05-22 17:22:00,
2013-05-22 12:33:00,76.0,67.0,29.93,SSW,192,3.0,9.0,74,0.00,,,0.00,,2013-05-22 17:33:00,
2013-05-22 12:42:00,76.0,67.0,29.93,SSW,192,3.0,9.0,74,0.00,,,0.00,,2013-05-22 17:42:00,
2013-05-22 12:53:00,76.0,67.0,29.93,SSW,195,5.0,12.0,74,0.00,,,0.00,,2013-05-22 17:53:00,
2013-05-22 13:02:00,76.0,66.0,29.93,SSW,212,7.0,20.0,72,0.00,,,0.00,,2013-05-22 18:02:00,
2013-05-22 13:14:00,76.0,66.0,29.93,SSW,212,7.0,20.0,72,0.00,,,0.00,,2013-05-22 18:14:00,
2013-05-22 13:22:00,76.0,67.0,29.91,SSW,201,6.0,10.0,73,0.00,,,0.00,,2013-05-22 18:22:00,
2013-05-22 13:33:00,76.0,66.0,29.91,South,171,8.0,12.0,72,0.00,,,0.00,,2013-05-22 18:33:00,
2013-05-22 13:42:00,76.0,66.0,29.91,South,171,8.0,12.0,72,0.00,,,0.00,,2013-05-22 18:42:00,
2013-05-22 13:52:00,77.0,67.0,29.91,South,184,6.0,12.0,72,0.00,,,0.00,,2013-05-22 18:52:00,
2013-05-22 14:02:00,77.0,67.0,29.91,South,181,5.0,9.0,72,0.00,,,0.00,,2013-05-22 19:02:00,
2013-05-22 14:11:00,77.0,67.0,29.90,South,186,6.0,13.0,71,0.00,,,0.00,,2013-05-22 19:11:00,
2013-05-22 14:21:00,77.0,67.0,29.90,South,186,6.0,13.0,71,0.00,,,0.00,,2013-05-22 19:21:00,
2013-05-22 14:32:00,78.0,67.0,29.90,South,189,6.0,12.0,69,0.00,,,0.00,,2013-05-22 19:32:00,
2013-05-22 14:42:00,78.0,68.0,29.90,SSW,209,6.0,12.0,71,0.00,,,0.00,,2013-05-22 19:42:00,
2013-05-22 14:52:00,78.0,68.0,29.90,SSW,209,6.0,12.0,71,0.00,,,0.00,,2013-05-22 19:52:00,
2013-05-22 15:02:00,77.0,67.0,29.89,SSW,197,6.0,13.0,71,0.00,,,0.00,,2013-05-22 20:02:00,
2013-05-22 15:11:00,79.0,68.0,29.88,SSW,193,7.0,16.0,68,0.00,,,0.00,,2013-05-22 20:11:00,
2013-05-22 15:21:00,79.0,68.0,29.88,SSW,193,7.0,16.0,68,0.00,,,0.00,,2013-05-22 20:21:00,
2013-05-22 15:32:00,79.0,67.0,29.88,SSW,205,12.0,18.0,66,0.00,,,0.00,,2013-05-22 20:32:00,
2013-05-22 15:42:00,79.0,66.0,29.88,SW,231,7.0,13.0,65,0.00,,,0.00,,2013-05-22 20:42:00,
2013-05-22 15:52:00,79.0,66.0,29.88,SW,231,7.0,13.0,65,0.00,,,0.00,,2013-05-22 20:52:00,
2013-05-22 16:01:00,79.0,67.0,29.87,SSW,209,5.0,15.0,67,0.00,,,0.00,,2013-05-22 21:01:00,
2013-05-22 16:11:00,77.0,66.0,29.87,SSW,211,6.0,12.0,69,0.00,,,0.00,,2013-05-22 21:11:00,
2013-05-22 16:21:00,77.0,66.0,29.87,SSW,211,6.0,12.0,69,0.00,,,0.00,,2013-05-22 21:21:00,
2013-05-22 16:32:00,77.0,67.0,29.87,SSW,203,5.0,10.0,71,0.00,,,0.00,,2013-05-22 21:32:00,
2013-05-22 16:42:00,77.0,67.0,29.87,SSW,203,5.0,10.0,71,0.00,,,0.00,,2013-05-22 21:42:00,
2013-05-22 16:53:00,78.0,67.0,29.87,SW,219,3.0,10.0,70,0.00,,,0.00,,2013-05-22 21:53:00,
2013-05-22 17:03:00,77.0,68.0,29.86,SSW,193,1.0,6.0,73,0.00,,,0.00,,2013-05-22 22:03:00,
2013-05-22 17:12:00,77.0,67.0,29.87,SSW,204,7.0,13.0,71,0.00,,,0.00,,2013-05-22 22:12:00,
2013-05-22 17:22:00,77.0,67.0,29.87,SSW,204,7.0,13.0,71,0.00,,,0.00,,2013-05-22 22:22:00,
2013-05-22 17:33:00,78.0,69.0,29.86,SW,235,2.0,6.0,73,0.00,,,0.00,,2013-05-22 22:33:00,
2013-05-22 17:42:00,78.0,66.0,29.86,SW,223,6.0,12.0,67,0.00,,,0.00,,2013-05-22 22:42:00,
2013-05-22 17:52:00,78.0,66.0,29.86,SW,223,6.0,12.0,67,0.00,,,0.00,,2013-05-22 22:52:00,
2013-05-22 18:02:00,78.0,67.0,29.86,SW,224,3.0,7.0,68,0.00,,,0.00,,2013-05-22 23:02:00,
2013-05-22 18:12:00,78.0,67.0,29.86,SW,224,3.0,7.0,68,0.00,,,0.00,,2013-05-22 23:12:00,
2013-05-22 18:21:00,78.0,67.0,29.86,SSW,203,4.0,12.0,68,0.00,,,0.00,,2013-05-22 23:21:00,
2013-05-22 18:32:00,77.0,65.0,29.86,SSW,212,6.0,12.0,66,0.00,,,0.00,,2013-05-22 23:32:00,
2013-05-22 18:42:00,77.0,65.0,29.86,SSW,212,6.0,12.0,66,0.00,,,0.00,,2013-05-22 23:42:00,
2013-05-22 18:52:00,76.0,65.0,29.86,SSW,213,3.0,8.0,68,0.00,,,0.00,,2013-05-22 23:52:00,
2013-05-22 19:01:00,76.0,65.0,29.87,WSW,250,2.0,6.0,69,0.00,,,0.00,,2013-05-23 00:01:00,
2013-05-22 19:11:00,76.0,65.0,29.87,WSW,250,2.0,6.0,69,0.00,,,0.00,,2013-05-23 00:11:00,
2013-05-22 19:22:00,75.0,65.0,29.87,SSW,203,2.0,7.0,71,0.00,,,0.00,,2013-05-23 00:22:00,
2013-05-22 19:31:00,74.0,64.0,29.88,SW,217,3.0,10.0,72,0.00,,,0.00,,2013-05-23 00:31:00,
2013-05-22 19:42:00,74.0,64.0,29.88,SW,217,3.0,10.0,72,0.00,,,0.00,,2013-05-23 00:42:00,
2013-05-22 19:52:00,71.0,65.0,29.88,WNW,295,0.0,3.0,81,0.00,,,0.00,,2013-05-23 00:52:00,
2013-05-22 20:01:00,70.0,65.0,29.89,SSW,208,0.0,1.0,84,0.00,,,0.00,,2013-05-23 01:01:00,
2013-05-22 20:11:00,69.0,65.0,29.89,SSW,208,0.0,0.0,87,0.00,,,0.00,,2013-05-23 01:11:00,
2013-05-22 20:21:00,69.0,65.0,29.89,SSW,208,0.0,0.0,87,0.00,,,0.00,,2013-05-23 01:21:00,
2013-05-22 20:32:00,68.0,64.0,29.89,SSW,208,0.0,0.0,88,0.00,,,0.00,,2013-05-23 01:32:00,
2013-05-22 20:42:00,68.0,65.0,29.90,SSW,208,0.0,0.0,90,0.00,,,0.00,,2013-05-23 01:42:00,
2013-05-22 20:52:00,68.0,65.0,29.90,SSW,208,0.0,0.0,90,0.00,,,0.00,,2013-05-23 01:52:00,
2013-05-22 21:01:00,68.0,65.0,29.90,SSW,208,0.0,0.0,90,0.00,,,0.00,,2013-05-23 02:01:00,
2013-05-22 21:11:00,68.0,65.0,29.90,SW,235,0.0,0.0,91,0.00,,,0.00,,2013-05-23 02:11:00,
2013-05-22 21:21:00,68.0,65.0,29.90,SW,235,0.0,0.0,91,0.00,,,0.00,,2013-05-23 02:21:00,
2013-05-22 21:31:00,68.0,65.0,29.91,SW,235,0.0,0.0,90,0.00,,,0.00,,2013-05-23 02:31:00,
2013-05-22 21:42:00,68.0,65.0,29.91,SW,235,0.0,0.0,90,0.00,,,0.00,,2013-05-23 02:42:00,
2013-05-22 21:52:00,68.0,65.0,29.91,SW,235,0.0,0.0,90,0.00,,,0.00,,2013-05-23 02:52:00,
2013-05-22 22:01:00,67.0,65.0,29.91,SW,235,0.0,0.0,92,0.00,,,0.00,,2013-05-23 03:01:00,
2013-05-22 22:11:00,67.0,65.0,29.91,SW,235,0.0,0.0,92,0.00,,,0.00,,2013-05-23 03:11:00,
2013-05-22 22:21:00,67.0,65.0,29.92,SW,235,0.0,0.0,92,0.00,,,0.00,,2013-05-23 03:21:00,
2013-05-22 22:33:00,67.0,65.0,29.92,SW,235,0.0,0.0,92,0.00,,,0.00,,2013-05-23 03:33:00,
2013-05-22 22:43:00,67.0,65.0,29.92,SW,235,0.0,0.0,92,0.00,,,0.00,,2013-05-23 03:43:00,
2013-05-22 22:53:00,67.0,65.0,29.92,SW,235,0.0,0.0,92,0.00,,,0.00,,2013-05-23 03:53:00,
2013-05-22 23:03:00,67.0,65.0,29.92,SW,235,0.0,0.0,93,0.00,,,0.00,,2013-05-23 04:03:00,
2013-05-22 23:12:00,67.0,65.0,29.92,SW,235,0.0,0.0,93,0.00,,,0.00,,2013-05-23 04:12:00,
2013-05-22 23:22:00,67.0,65.0,29.92,SW,235,0.0,0.0,94,0.00,,,0.00,,2013-05-23 04:22:00,
2013-05-22 23:33:00,67.0,65.0,29.92,SW,235,0.0,0.0,94,0.00,,,0.00,,2013-05-23 04:33:00,
2013-05-22 23:42:00,67.0,65.0,29.92,SW,235,0.0,0.0,94,0.00,,,0.00,,2013-05-23 04:42:00,
2013-05-22 23:52:00,66.0,64.0,29.92,SW,235,0.0,0.0,94,0.00,,,0.00,,2013-05-23 04:52:00,